Känerkinden
Datum - Zeit
TemperaturTaupunktFeuchteSolar Wind aus Richtung WindböenLuftdruck (QFF)RegenRegenstärkeTrend
06.09.2026 - 00.00Uhr15.6 °C13.4 °C87 %0.0 W/m²0.0 km/hOst-NO0.0 km/h1023.4 hPa0.0 mm0.0 mm/hsonnig
06.09.2026 - 00.05Uhr15.6 °C13.4 °C87 %0.0 W/m²0.0 km/hOst-NO0.0 km/h1023.4 hPa0.0 mm0.0 mm/hwechselhaft
06.09.2026 - 00.10Uhr15.7 °C13.5 °C87 %0.0 W/m²0.0 km/hOst-NO0.0 km/h1023.5 hPa0.0 mm0.0 mm/hwechselhaft
06.09.2026 - 00.15Uhr15.7 °C13.5 °C87 %0.0 W/m²2.2 km/hOst-SO6.5 km/h1023.4 hPa0.0 mm0.0 mm/hwechselhaft
06.09.2026 - 00.20Uhr15.6 °C13.4 °C87 %0.0 W/m²0.0 km/hOst-SO0.0 km/h1023.4 hPa0.0 mm0.0 mm/hwechselhaft
06.09.2026 - 00.25Uhr15.4 °C13.2 °C87 %0.0 W/m²0.0 km/hOst-SO0.0 km/h1023.4 hPa0.0 mm0.0 mm/hwechselhaft
06.09.2026 - 00.30Uhr15.4 °C13.3 °C88 %0.0 W/m²2.2 km/hNordosten4.7 km/h1023.5 hPa0.0 mm0.0 mm/hwechselhaft
06.09.2026 - 00.35Uhr15.7 °C13.6 °C87 %0.0 W/m²1.4 km/hNordosten4.7 km/h1023.5 hPa0.0 mm0.0 mm/hwechselhaft
06.09.2026 - 00.40Uhr15.7 °C13.5 °C87 %0.0 W/m²0.0 km/hNordosten0.0 km/h1023.4 hPa0.0 mm0.0 mm/hwechselhaft
06.09.2026 - 00.45Uhr15.7 °C13.5 °C87 %0.0 W/m²2.5 km/hOsten4.7 km/h1023.5 hPa0.0 mm0.0 mm/hwechselhaft
06.09.2026 - 00.50Uhr15.7 °C13.4 °C86 %0.0 W/m²0.7 km/hOsten3.2 km/h1023.5 hPa0.0 mm0.0 mm/hwechselhaft
06.09.2026 - 00.55Uhr15.5 °C13.3 °C87 %0.0 W/m²0.1 km/hOsten1.4 km/h1023.5 hPa0.0 mm0.0 mm/hwechselhaft
06.09.2026 - 01.00Uhr15.5 °C13.3 °C87 %0.0 W/m²0.0 km/hOsten0.0 km/h1023.5 hPa0.0 mm0.0 mm/hwechselhaft
06.09.2026 - 01.05Uhr15.4 °C13.2 °C87 %0.0 W/m²0.0 km/hOsten0.0 km/h1023.4 hPa0.0 mm0.0 mm/hwechselhaft
06.09.2026 - 01.10Uhr15.3 °C13.1 °C87 %0.0 W/m²0.0 km/hOsten0.0 km/h1023.4 hPa0.0 mm0.0 mm/hwechselhaft
06.09.2026 - 01.15Uhr15.2 °C13.2 °C88 %0.0 W/m²0.0 km/hOsten0.0 km/h1023.4 hPa0.0 mm0.0 mm/hwechselhaft
06.09.2026 - 01.20Uhr15.2 °C13.2 °C88 %0.0 W/m²0.0 km/hOsten0.0 km/h1023.5 hPa0.0 mm0.0 mm/hwechselhaft
06.09.2026 - 01.25Uhr15.2 °C13.2 °C88 %0.0 W/m²0.0 km/hOsten0.0 km/h1023.5 hPa0.0 mm0.0 mm/hwechselhaft
06.09.2026 - 01.30Uhr15.1 °C13.1 °C88 %0.0 W/m²0.0 km/hOsten0.0 km/h1023.6 hPa0.0 mm0.0 mm/hwechselhaft
06.09.2026 - 01.35Uhr14.9 °C12.9 °C88 %0.0 W/m²0.0 km/hOsten0.0 km/h1023.6 hPa0.0 mm0.0 mm/hwechselhaft
06.09.2026 - 01.40Uhr14.7 °C12.7 °C88 %0.0 W/m²0.0 km/hOsten0.0 km/h1023.6 hPa0.0 mm0.0 mm/hwechselhaft
06.09.2026 - 01.45Uhr14.7 °C12.9 °C89 %0.0 W/m²0.0 km/hOsten0.0 km/h1023.5 hPa0.0 mm0.0 mm/hwechselhaft
06.09.2026 - 01.50Uhr14.9 °C13.1 °C89 %0.0 W/m²0.0 km/hOsten0.0 km/h1023.5 hPa0.0 mm0.0 mm/hwechselhaft
06.09.2026 - 01.55Uhr15.0 °C13.0 °C88 %0.0 W/m²0.0 km/hOsten0.0 km/h1023.4 hPa0.0 mm0.0 mm/hwechselhaft
06.09.2026 - 02.00Uhr14.7 °C12.7 °C88 %0.0 W/m²0.0 km/hOsten0.0 km/h1023.5 hPa0.0 mm0.0 mm/hwechselhaft
06.09.2026 - 02.05Uhr14.7 °C12.8 °C89 %0.0 W/m²0.0 km/hOsten0.0 km/h1023.4 hPa0.0 mm0.0 mm/hwechselhaft
06.09.2026 - 02.10Uhr14.5 °C12.5 °C88 %0.0 W/m²0.0 km/hOsten0.0 km/h1023.4 hPa0.0 mm0.0 mm/hwechselhaft
06.09.2026 - 02.15Uhr14.3 °C12.6 °C90 %0.0 W/m²0.0 km/hOsten0.0 km/h1023.4 hPa0.0 mm0.0 mm/hwechselhaft
06.09.2026 - 02.20Uhr14.3 °C12.6 °C89 %0.0 W/m²0.0 km/hOsten0.0 km/h1023.3 hPa0.0 mm0.0 mm/hwechselhaft
06.09.2026 - 02.25Uhr14.2 °C12.5 °C89 %0.0 W/m²0.0 km/hOsten0.0 km/h1023.3 hPa0.0 mm0.0 mm/hwechselhaft
06.09.2026 - 02.30Uhr14.1 °C12.3 °C89 %0.0 W/m²0.0 km/hOsten0.0 km/h1023.3 hPa0.0 mm0.0 mm/hwechselhaft
06.09.2026 - 02.35Uhr14.2 °C12.6 °C90 %0.0 W/m²0.0 km/hOsten0.0 km/h1023.2 hPa0.0 mm0.0 mm/hwechselhaft
06.09.2026 - 02.40Uhr14.2 °C12.6 °C90 %0.0 W/m²0.0 km/hOsten0.0 km/h1023.3 hPa0.0 mm0.0 mm/hwechselhaft
06.09.2026 - 02.45Uhr14.2 °C12.6 °C90 %0.0 W/m²0.0 km/hOsten0.0 km/h1023.3 hPa0.0 mm0.0 mm/hwechselhaft
06.09.2026 - 02.50Uhr14.2 °C12.6 °C90 %0.0 W/m²0.0 km/hOsten0.0 km/h1023.2 hPa0.0 mm0.0 mm/hwechselhaft
06.09.2026 - 02.55Uhr14.3 °C12.7 °C90 %0.0 W/m²0.0 km/hOsten0.0 km/h1023.2 hPa0.0 mm0.0 mm/hwechselhaft
06.09.2026 - 03.00Uhr14.3 °C12.7 °C90 %0.0 W/m²0.0 km/hOsten0.0 km/h1023.2 hPa0.0 mm0.0 mm/hwechselhaft
06.09.2026 - 03.05Uhr14.3 °C12.7 °C90 %0.0 W/m²0.0 km/hOsten0.0 km/h1023.3 hPa0.0 mm0.0 mm/hwechselhaft
06.09.2026 - 03.10Uhr14.3 °C12.7 °C90 %0.0 W/m²0.0 km/hOsten0.0 km/h1023.3 hPa0.0 mm0.0 mm/hwechselhaft
06.09.2026 - 03.15Uhr14.2 °C12.5 °C90 %0.0 W/m²0.0 km/hOsten0.0 km/h1023.4 hPa0.0 mm0.0 mm/hwechselhaft
06.09.2026 - 03.20Uhr14.3 °C12.8 °C90 %0.0 W/m²0.0 km/hOsten0.0 km/h1023.4 hPa0.0 mm0.0 mm/hwechselhaft
06.09.2026 - 03.25Uhr14.3 °C12.7 °C90 %0.0 W/m²0.0 km/hOsten0.0 km/h1023.4 hPa0.0 mm0.0 mm/hwechselhaft
06.09.2026 - 03.30Uhr14.1 °C12.4 °C89 %0.0 W/m²0.0 km/hOsten0.0 km/h1023.4 hPa0.0 mm0.0 mm/hwechselhaft
06.09.2026 - 03.35Uhr14.1 °C12.6 °C90 %0.0 W/m²0.0 km/hOsten0.0 km/h1023.4 hPa0.0 mm0.0 mm/hwechselhaft
06.09.2026 - 03.40Uhr14.2 °C12.6 °C90 %0.0 W/m²0.0 km/hOsten0.0 km/h1023.5 hPa0.0 mm0.0 mm/hwechselhaft
06.09.2026 - 03.45Uhr14.0 °C12.3 °C90 %0.0 W/m²0.0 km/hOsten0.0 km/h1023.4 hPa0.0 mm0.0 mm/hwechselhaft
06.09.2026 - 03.50Uhr13.7 °C12.0 °C90 %0.0 W/m²0.0 km/hOsten0.0 km/h1023.4 hPa0.0 mm0.0 mm/hwechselhaft
06.09.2026 - 03.55Uhr13.6 °C11.9 °C90 %0.0 W/m²0.0 km/hOsten0.0 km/h1023.4 hPa0.0 mm0.0 mm/hwechselhaft
06.09.2026 - 04.00Uhr13.2 °C11.4 °C89 %0.0 W/m²0.0 km/hOsten0.0 km/h1023.4 hPa0.0 mm0.0 mm/hwechselhaft
06.09.2026 - 04.05Uhr13.1 °C11.6 °C90 %0.0 W/m²0.0 km/hOsten0.0 km/h1023.5 hPa0.0 mm0.0 mm/hwechselhaft
06.09.2026 - 04.10Uhr13.5 °C12.2 °C92 %0.0 W/m²0.0 km/hOsten0.0 km/h1023.5 hPa0.0 mm0.0 mm/hwechselhaft
06.09.2026 - 04.15Uhr13.9 °C12.5 °C91 %0.0 W/m²0.0 km/hOsten0.0 km/h1023.5 hPa0.0 mm0.0 mm/hwechselhaft
06.09.2026 - 04.20Uhr13.8 °C12.4 °C91 %0.0 W/m²0.0 km/hOsten0.0 km/h1023.5 hPa0.0 mm0.0 mm/hwechselhaft
06.09.2026 - 04.25Uhr14.0 °C12.7 °C92 %0.0 W/m²0.0 km/hOsten0.0 km/h1023.6 hPa0.0 mm0.0 mm/hwechselhaft
06.09.2026 - 04.30Uhr14.1 °C12.7 °C91 %0.0 W/m²0.0 km/hOsten0.0 km/h1023.6 hPa0.0 mm0.0 mm/hwechselhaft
06.09.2026 - 04.35Uhr13.9 °C12.5 °C91 %0.0 W/m²0.0 km/hOsten0.0 km/h1023.6 hPa0.0 mm0.0 mm/hwechselhaft
06.09.2026 - 04.40Uhr13.7 °C12.3 °C91 %0.0 W/m²0.0 km/hOsten0.0 km/h1023.5 hPa0.0 mm0.0 mm/hwechselhaft
06.09.2026 - 04.45Uhr13.7 °C12.3 °C91 %0.0 W/m²0.0 km/hOsten0.0 km/h1023.6 hPa0.0 mm0.0 mm/hwechselhaft
06.09.2026 - 04.50Uhr13.6 °C12.2 °C91 %0.0 W/m²0.0 km/hOsten0.0 km/h1023.7 hPa0.0 mm0.0 mm/hwechselhaft
06.09.2026 - 04.55Uhr13.4 °C12.0 °C91 %0.0 W/m²0.0 km/hOsten0.0 km/h1023.7 hPa0.0 mm0.0 mm/hwechselhaft
06.09.2026 - 05.00Uhr13.4 °C12.1 °C91 %0.0 W/m²0.0 km/hOsten0.0 km/h1023.7 hPa0.0 mm0.0 mm/hwechselhaft
06.09.2026 - 05.05Uhr13.6 °C12.2 °C91 %0.0 W/m²0.0 km/hOsten0.0 km/h1023.7 hPa0.0 mm0.0 mm/hwechselhaft
06.09.2026 - 05.10Uhr13.5 °C12.2 °C91 %0.0 W/m²0.0 km/hOsten0.0 km/h1023.7 hPa0.0 mm0.0 mm/hwechselhaft
06.09.2026 - 05.15Uhr13.2 °C11.8 °C91 %0.0 W/m²0.0 km/hOsten0.0 km/h1023.7 hPa0.0 mm0.0 mm/hwechselhaft
06.09.2026 - 05.20Uhr12.9 °C11.6 °C91 %0.0 W/m²0.0 km/hOsten0.0 km/h1023.7 hPa0.0 mm0.0 mm/hwechselhaft
06.09.2026 - 05.25Uhr12.8 °C11.5 °C92 %0.0 W/m²0.0 km/hOsten0.0 km/h1023.7 hPa0.0 mm0.0 mm/hwechselhaft
06.09.2026 - 05.30Uhr13.0 °C11.7 °C92 %0.0 W/m²0.0 km/hOsten0.0 km/h1023.6 hPa0.0 mm0.0 mm/hwechselhaft
06.09.2026 - 05.35Uhr13.3 °C12.1 °C93 %0.0 W/m²0.0 km/hOsten0.0 km/h1023.6 hPa0.0 mm0.0 mm/hwechselhaft
06.09.2026 - 05.40Uhr13.2 °C11.9 °C92 %0.0 W/m²0.0 km/hOsten0.0 km/h1023.6 hPa0.0 mm0.0 mm/hwechselhaft
06.09.2026 - 05.45Uhr12.9 °C11.5 °C92 %0.0 W/m²0.0 km/hOsten0.0 km/h1023.6 hPa0.0 mm0.0 mm/hwechselhaft
06.09.2026 - 05.50Uhr12.9 °C11.6 °C92 %0.0 W/m²0.0 km/hOsten0.0 km/h1023.5 hPa0.0 mm0.0 mm/hwechselhaft
06.09.2026 - 05.55Uhr12.8 °C11.6 °C92 %0.0 W/m²0.0 km/hOsten0.0 km/h1023.5 hPa0.0 mm0.0 mm/hwechselhaft
06.09.2026 - 06.00Uhr12.7 °C11.4 °C92 %0.0 W/m²0.0 km/hOsten0.0 km/h1023.5 hPa0.0 mm0.0 mm/hwechselhaft
06.09.2026 - 06.05Uhr12.7 °C11.5 °C93 %0.0 W/m²0.0 km/hOsten0.0 km/h1023.5 hPa0.0 mm0.0 mm/hwechselhaft
06.09.2026 - 06.10Uhr13.0 °C12.0 °C93 %0.0 W/m²0.0 km/hOsten0.0 km/h1023.4 hPa0.0 mm0.0 mm/hwechselhaft
06.09.2026 - 06.15Uhr12.9 °C11.8 °C93 %0.0 W/m²0.0 km/hOsten0.0 km/h1023.4 hPa0.0 mm0.0 mm/hwechselhaft
06.09.2026 - 06.20Uhr12.7 °C11.5 °C92 %0.0 W/m²0.0 km/hOsten0.0 km/h1023.3 hPa0.0 mm0.0 mm/hwechselhaft
06.09.2026 - 06.25Uhr12.7 °C11.5 °C92 %0.0 W/m²0.0 km/hOsten0.0 km/h1023.3 hPa0.0 mm0.0 mm/hwechselhaft
06.09.2026 - 06.30Uhr12.7 °C11.5 °C93 %0.0 W/m²0.0 km/hOsten0.0 km/h1023.3 hPa0.0 mm0.0 mm/hwechselhaft
06.09.2026 - 06.35Uhr12.4 °C11.2 °C92 %0.0 W/m²0.0 km/hOsten0.0 km/h1023.3 hPa0.0 mm0.0 mm/hwechselhaft
06.09.2026 - 06.40Uhr12.0 °C10.7 °C92 %0.0 W/m²0.0 km/hOsten0.0 km/h1023.4 hPa0.0 mm0.0 mm/hwechselhaft
06.09.2026 - 06.45Uhr12.2 °C11.1 °C93 %0.0 W/m²0.0 km/hNord-NW0.0 km/h1023.5 hPa0.0 mm0.0 mm/hwechselhaft
06.09.2026 - 06.50Uhr12.2 °C11.0 °C93 %0.0 W/m²0.0 km/hNord-NW0.0 km/h1023.6 hPa0.0 mm0.0 mm/hwechselhaft
06.09.2026 - 06.55Uhr12.2 °C11.0 °C93 %5.0 W/m²3.5 km/hWesten4.7 km/h1023.6 hPa0.0 mm0.0 mm/hwechselhaft
06.09.2026 - 07.00Uhr12.2 °C11.0 °C93 %7.0 W/m²3.2 km/hWesten4.7 km/h1023.7 hPa0.0 mm0.0 mm/hwechselhaft
06.09.2026 - 07.05Uhr12.0 °C10.9 °C93 %9.0 W/m²3.9 km/hWest-SW4.7 km/h1023.8 hPa0.0 mm0.0 mm/hwechselhaft
06.09.2026 - 07.10Uhr12.1 °C10.9 °C93 %14.0 W/m²4.4 km/hWest-SW6.5 km/h1023.8 hPa0.0 mm0.0 mm/hwechselhaft
06.09.2026 - 07.15Uhr12.4 °C11.4 °C94 %19.0 W/m²5.4 km/hWesten6.5 km/h1023.9 hPa0.0 mm0.0 mm/hwechselhaft
06.09.2026 - 07.20Uhr12.4 °C11.3 °C93 %28.0 W/m²5.0 km/hWesten6.5 km/h1023.9 hPa0.0 mm0.0 mm/hwechselhaft
06.09.2026 - 07.25Uhr12.6 °C11.5 °C93 %40.0 W/m²3.0 km/hWesten4.7 km/h1023.9 hPa0.0 mm0.0 mm/hwechselhaft
06.09.2026 - 07.30Uhr12.6 °C11.6 °C94 %47.0 W/m²1.5 km/hWesten3.2 km/h1023.9 hPa0.0 mm0.0 mm/hwechselhaft
06.09.2026 - 07.35Uhr12.8 °C11.9 °C94 %58.0 W/m²0.0 km/hSüd-SW0.0 km/h1023.9 hPa0.0 mm0.0 mm/hwechselhaft
06.09.2026 - 07.40Uhr13.0 °C12.0 °C94 %70.0 W/m²0.0 km/hSüd-SO0.0 km/h1023.9 hPa0.0 mm0.0 mm/hwechselhaft
06.09.2026 - 07.45Uhr13.0 °C11.9 °C93 %81.0 W/m²0.0 km/hSüd-SO0.0 km/h1023.9 hPa0.0 mm0.0 mm/hwechselhaft
06.09.2026 - 07.50Uhr13.1 °C12.0 °C93 %95.0 W/m²0.0 km/hSüd-SO0.0 km/h1024.0 hPa0.0 mm0.0 mm/hwechselhaft
06.09.2026 - 07.55Uhr13.3 °C12.2 °C93 %102.0 W/m²0.0 km/hSüd-SO0.0 km/h1024.0 hPa0.0 mm0.0 mm/hwechselhaft
06.09.2026 - 08.00Uhr13.5 °C12.2 °C92 %104.0 W/m²0.0 km/hSüd-SO0.0 km/h1024.0 hPa0.0 mm0.0 mm/hwechselhaft
06.09.2026 - 08.05Uhr13.7 °C12.3 °C92 %114.0 W/m²0.0 km/hSüd-SO0.0 km/h1024.0 hPa0.0 mm0.0 mm/hwechselhaft
06.09.2026 - 08.10Uhr13.8 °C12.4 °C91 %142.0 W/m²0.0 km/hSüden0.0 km/h1024.1 hPa0.0 mm0.0 mm/hwechselhaft
06.09.2026 - 08.15Uhr14.0 °C12.5 °C90 %169.0 W/m²0.0 km/hSüden0.0 km/h1024.1 hPa0.0 mm0.0 mm/hwechselhaft
06.09.2026 - 08.20Uhr14.2 °C12.5 °C89 %179.0 W/m²0.0 km/hSüden0.0 km/h1024.1 hPa0.0 mm0.0 mm/hwechselhaft
06.09.2026 - 08.25Uhr14.4 °C12.4 °C88 %195.0 W/m²0.0 km/hSüden0.0 km/h1024.2 hPa0.0 mm0.0 mm/hwechselhaft
06.09.2026 - 08.30Uhr14.7 °C12.1 °C84 %211.0 W/m²0.0 km/hSüden0.0 km/h1024.1 hPa0.0 mm0.0 mm/hwechselhaft
06.09.2026 - 08.35Uhr15.1 °C11.8 °C81 %223.0 W/m²0.0 km/hSüden0.0 km/h1024.1 hPa0.0 mm0.0 mm/hwechselhaft
06.09.2026 - 08.40Uhr15.4 °C11.5 °C78 %237.0 W/m²1.8 km/hOst-NO6.5 km/h1024.1 hPa0.0 mm0.0 mm/hwechselhaft
06.09.2026 - 08.45Uhr15.6 °C11.3 °C76 %244.0 W/m²3.3 km/hOsten7.9 km/h1024.1 hPa0.0 mm0.0 mm/hwechselhaft
06.09.2026 - 08.50Uhr15.7 °C11.2 °C74 %244.0 W/m²4.2 km/hNordosten9.7 km/h1024.1 hPa0.0 mm0.0 mm/hwechselhaft
06.09.2026 - 08.55Uhr15.9 °C11.1 °C73 %227.0 W/m²4.8 km/hOsten9.7 km/h1024.0 hPa0.0 mm0.0 mm/hwechselhaft
06.09.2026 - 09.00Uhr16.2 °C11.4 °C73 %272.0 W/m²5.0 km/hOsten7.9 km/h1024.0 hPa0.0 mm0.0 mm/hwechselhaft
06.09.2026 - 09.05Uhr16.3 °C11.5 °C73 %299.0 W/m²3.6 km/hOst-SO6.5 km/h1024.0 hPa0.0 mm0.0 mm/hwechselhaft
06.09.2026 - 09.10Uhr16.5 °C11.4 °C72 %318.0 W/m²5.0 km/hOsten9.7 km/h1024.0 hPa0.0 mm0.0 mm/hwechselhaft
06.09.2026 - 09.15Uhr16.8 °C11.6 °C72 %336.0 W/m²5.0 km/hOsten11.2 km/h1024.0 hPa0.0 mm0.0 mm/hwechselhaft
06.09.2026 - 09.20Uhr16.9 °C11.4 °C70 %357.0 W/m²6.0 km/hOsten9.7 km/h1024.1 hPa0.0 mm0.0 mm/hwechselhaft
06.09.2026 - 09.25Uhr17.1 °C11.3 °C68 %376.0 W/m²7.0 km/hOsten11.2 km/h1024.1 hPa0.0 mm0.0 mm/hwechselhaft
06.09.2026 - 09.30Uhr17.3 °C11.2 °C67 %387.0 W/m²5.8 km/hOst-NO9.7 km/h1024.2 hPa0.0 mm0.0 mm/hwechselhaft
06.09.2026 - 09.35Uhr17.5 °C11.0 °C66 %394.0 W/m²6.8 km/hOst-NO11.2 km/h1024.2 hPa0.0 mm0.0 mm/hwechselhaft
06.09.2026 - 09.40Uhr17.6 °C11.2 °C66 %394.0 W/m²7.3 km/hOsten11.2 km/h1024.2 hPa0.0 mm0.0 mm/hwechselhaft
06.09.2026 - 09.45Uhr17.8 °C11.2 °C65 %390.0 W/m²6.8 km/hOst-NO11.2 km/h1024.0 hPa0.0 mm0.0 mm/hwechselhaft
06.09.2026 - 09.50Uhr18.1 °C11.3 °C65 %383.0 W/m²7.8 km/hOsten11.2 km/h1024.0 hPa0.0 mm0.0 mm/hwechselhaft
06.09.2026 - 09.55Uhr18.2 °C11.4 °C64 %374.0 W/m²5.4 km/hOst-NO11.2 km/h1024.1 hPa0.0 mm0.0 mm/hwechselhaft
06.09.2026 - 10.00Uhr18.4 °C11.3 °C64 %369.0 W/m²5.9 km/hOsten11.2 km/h1024.1 hPa0.0 mm0.0 mm/hwechselhaft
06.09.2026 - 10.05Uhr18.6 °C11.6 °C64 %353.0 W/m²6.5 km/hOsten11.2 km/h1024.0 hPa0.0 mm0.0 mm/hwechselhaft
06.09.2026 - 10.10Uhr18.8 °C11.6 °C63 %327.0 W/m²5.2 km/hOsten9.7 km/h1024.0 hPa0.0 mm0.0 mm/hwechselhaft
06.09.2026 - 10.15Uhr19.0 °C11.7 °C63 %341.0 W/m²7.3 km/hOsten11.2 km/h1023.9 hPa0.0 mm0.0 mm/hwechselhaft
06.09.2026 - 10.20Uhr19.1 °C11.7 °C62 %415.0 W/m²7.3 km/hOsten17.6 km/h1023.9 hPa0.0 mm0.0 mm/hwechselhaft
06.09.2026 - 10.25Uhr19.3 °C11.6 °C61 %501.0 W/m²5.6 km/hOst-NO9.7 km/h1023.9 hPa0.0 mm0.0 mm/hwechselhaft
06.09.2026 - 10.30Uhr19.6 °C11.9 °C61 %541.0 W/m²8.4 km/hOst-NO11.2 km/h1023.9 hPa0.0 mm0.0 mm/hwechselhaft
06.09.2026 - 10.35Uhr19.6 °C11.8 °C60 %550.0 W/m²8.4 km/hOsten14.4 km/h1023.9 hPa0.0 mm0.0 mm/hwechselhaft
06.09.2026 - 10.40Uhr19.8 °C11.6 °C59 %563.0 W/m²8.4 km/hOsten14.4 km/h1023.9 hPa0.0 mm0.0 mm/hwechselhaft
06.09.2026 - 10.45Uhr20.0 °C11.8 °C59 %571.0 W/m²8.4 km/hOsten17.6 km/h1023.9 hPa0.0 mm0.0 mm/hwechselhaft
06.09.2026 - 10.50Uhr20.1 °C12.0 °C60 %584.0 W/m²5.9 km/hOsten9.7 km/h1023.9 hPa0.0 mm0.0 mm/hwechselhaft
06.09.2026 - 10.55Uhr20.0 °C11.9 °C60 %596.0 W/m²5.6 km/hOsten11.2 km/h1023.9 hPa0.0 mm0.0 mm/hwechselhaft
06.09.2026 - 11.00Uhr20.2 °C12.2 °C60 %603.0 W/m²5.9 km/hOst-NO13.0 km/h1023.9 hPa0.0 mm0.0 mm/hwechselhaft
06.09.2026 - 11.05Uhr20.3 °C12.0 °C59 %612.0 W/m²7.8 km/hOst-NO11.2 km/h1023.8 hPa0.0 mm0.0 mm/hwechselhaft
06.09.2026 - 11.10Uhr20.4 °C12.0 °C59 %619.0 W/m²5.5 km/hOst-NO13.0 km/h1023.7 hPa0.0 mm0.0 mm/hwechselhaft
06.09.2026 - 11.15Uhr20.8 °C12.5 °C59 %629.0 W/m²7.3 km/hOsten13.0 km/h1023.7 hPa0.0 mm0.0 mm/hwechselhaft
06.09.2026 - 11.20Uhr21.2 °C12.8 °C58 %638.0 W/m²7.4 km/hOsten11.2 km/h1023.7 hPa0.0 mm0.0 mm/hwechselhaft
06.09.2026 - 11.25Uhr21.3 °C12.6 °C58 %647.0 W/m²8.3 km/hOsten11.2 km/h1023.6 hPa0.0 mm0.0 mm/hwechselhaft
06.09.2026 - 11.30Uhr21.5 °C12.8 °C58 %656.0 W/m²8.2 km/hOsten13.0 km/h1023.6 hPa0.0 mm0.0 mm/hwechselhaft
06.09.2026 - 11.35Uhr21.6 °C12.9 °C58 %664.0 W/m²6.0 km/hOst-NO11.2 km/h1023.6 hPa0.0 mm0.0 mm/hwechselhaft
06.09.2026 - 11.40Uhr21.6 °C13.0 °C58 %671.0 W/m²9.5 km/hOsten17.6 km/h1023.6 hPa0.0 mm0.0 mm/hwechselhaft
06.09.2026 - 11.45Uhr21.7 °C13.1 °C58 %675.0 W/m²3.5 km/hOst-NO11.2 km/h1023.6 hPa0.0 mm0.0 mm/hwechselhaft
06.09.2026 - 11.50Uhr21.7 °C13.2 °C59 %680.0 W/m²6.3 km/hOst-NO16.2 km/h1023.5 hPa0.0 mm0.0 mm/hwechselhaft
06.09.2026 - 11.55Uhr22.2 °C13.5 °C58 %689.0 W/m²5.7 km/hOst-NO13.0 km/h1023.5 hPa0.0 mm0.0 mm/hwechselhaft
06.09.2026 - 12.00Uhr22.5 °C13.6 °C57 %694.0 W/m²5.9 km/hOst-NO13.0 km/h1023.5 hPa0.0 mm0.0 mm/hwechselhaft
06.09.2026 - 12.05Uhr22.6 °C13.9 °C58 %701.0 W/m²7.8 km/hOsten19.4 km/h1023.4 hPa0.0 mm0.0 mm/hwechselhaft
06.09.2026 - 12.10Uhr22.8 °C13.8 °C57 %708.0 W/m²7.3 km/hOst-NO17.6 km/h1023.3 hPa0.0 mm0.0 mm/hwechselhaft
06.09.2026 - 12.15Uhr22.6 °C13.8 °C58 %712.0 W/m²6.9 km/hNordosten16.2 km/h1023.3 hPa0.0 mm0.0 mm/hwechselhaft
06.09.2026 - 12.20Uhr22.6 °C13.8 °C58 %714.0 W/m²8.2 km/hOsten16.2 km/h1023.3 hPa0.0 mm0.0 mm/hwechselhaft
06.09.2026 - 12.25Uhr22.8 °C13.8 °C57 %719.0 W/m²8.9 km/hOst-NO14.4 km/h1023.3 hPa0.0 mm0.0 mm/hwechselhaft
06.09.2026 - 12.30Uhr22.9 °C13.8 °C56 %722.0 W/m²8.4 km/hOst-NO17.6 km/h1023.2 hPa0.0 mm0.0 mm/hwechselhaft
06.09.2026 - 12.35Uhr23.0 °C14.1 °C57 %726.0 W/m²10.2 km/hOst-NO20.9 km/h1023.1 hPa0.0 mm0.0 mm/hwechselhaft
06.09.2026 - 12.40Uhr23.4 °C14.2 °C57 %731.0 W/m²6.8 km/hOsten19.4 km/h1023.1 hPa0.0 mm0.0 mm/hwechselhaft
06.09.2026 - 12.45Uhr23.5 °C14.1 °C56 %735.0 W/m²10.3 km/hOst-NO19.4 km/h1023.1 hPa0.0 mm0.0 mm/hwechselhaft
06.09.2026 - 12.50Uhr23.6 °C14.3 °C56 %737.0 W/m²7.0 km/hOsten11.2 km/h1023.0 hPa0.0 mm0.0 mm/hwechselhaft
06.09.2026 - 12.55Uhr23.9 °C14.4 °C56 %738.0 W/m²7.6 km/hOsten17.6 km/h1023.0 hPa0.0 mm0.0 mm/hwechselhaft
06.09.2026 - 13.00Uhr24.0 °C14.1 °C54 %742.0 W/m²9.0 km/hOsten19.4 km/h1023.0 hPa0.0 mm0.0 mm/hwechselhaft
06.09.2026 - 13.05Uhr23.9 °C14.1 °C55 %745.0 W/m²11.3 km/hOst-NO17.6 km/h1023.0 hPa0.0 mm0.0 mm/hwechselhaft
06.09.2026 - 13.10Uhr24.1 °C14.6 °C55 %744.0 W/m²7.9 km/hOsten17.6 km/h1023.0 hPa0.0 mm0.0 mm/hwechselhaft
06.09.2026 - 13.15Uhr24.0 °C14.2 °C54 %745.0 W/m²6.2 km/hNordosten11.2 km/h1023.0 hPa0.0 mm0.0 mm/hwechselhaft
06.09.2026 - 13.20Uhr24.0 °C14.5 °C55 %747.0 W/m²7.3 km/hOst-NO17.6 km/h1022.9 hPa0.0 mm0.0 mm/hwechselhaft
06.09.2026 - 13.25Uhr24.4 °C14.6 °C54 %749.0 W/m²6.8 km/hOst-NO13.0 km/h1022.9 hPa0.0 mm0.0 mm/hwechselhaft
06.09.2026 - 13.30Uhr24.5 °C14.8 °C55 %749.0 W/m²9.0 km/hOst-NO19.4 km/h1022.9 hPa0.0 mm0.0 mm/hwechselhaft
06.09.2026 - 13.35Uhr24.9 °C14.7 °C53 %752.0 W/m²10.5 km/hOst-NO20.9 km/h1022.9 hPa0.0 mm0.0 mm/hwechselhaft
06.09.2026 - 13.40Uhr24.7 °C14.4 °C53 %754.0 W/m²9.9 km/hOsten19.4 km/h1022.9 hPa0.0 mm0.0 mm/hwechselhaft
06.09.2026 - 13.45Uhr24.8 °C14.7 °C54 %756.0 W/m²5.7 km/hOst-NO11.2 km/h1022.8 hPa0.0 mm0.0 mm/hwechselhaft
06.09.2026 - 13.50Uhr25.3 °C15.0 °C53 %765.0 W/m²9.2 km/hOsten17.6 km/h1022.7 hPa0.0 mm0.0 mm/hwechselhaft
06.09.2026 - 13.55Uhr25.3 °C14.8 °C53 %773.0 W/m²8.3 km/hOst-NO19.4 km/h1022.6 hPa0.0 mm0.0 mm/hwechselhaft
06.09.2026 - 14.00Uhr25.1 °C14.7 °C53 %784.0 W/m²7.1 km/hOst-NO20.9 km/h1022.6 hPa0.0 mm0.0 mm/hwechselhaft
06.09.2026 - 14.05Uhr25.3 °C14.7 °C52 %751.0 W/m²8.1 km/hOst-NO20.9 km/h1022.6 hPa0.0 mm0.0 mm/hwechselhaft
06.09.2026 - 14.10Uhr25.1 °C14.8 °C53 %677.0 W/m²4.9 km/hNordosten13.0 km/h1022.6 hPa0.0 mm0.0 mm/hwechselhaft
06.09.2026 - 14.15Uhr25.3 °C14.9 °C53 %766.0 W/m²8.9 km/hOst-NO19.4 km/h1022.5 hPa0.0 mm0.0 mm/hwechselhaft
06.09.2026 - 14.20Uhr25.7 °C15.0 °C52 %773.0 W/m²9.7 km/hOsten19.4 km/h1022.4 hPa0.0 mm0.0 mm/hwechselhaft
06.09.2026 - 14.25Uhr25.5 °C14.8 °C52 %701.0 W/m²10.0 km/hOsten17.6 km/h1022.4 hPa0.0 mm0.0 mm/hwechselhaft
06.09.2026 - 14.30Uhr25.7 °C15.2 °C52 %756.0 W/m²7.1 km/hOst-SO14.4 km/h1022.4 hPa0.0 mm0.0 mm/hwechselhaft
06.09.2026 - 14.35Uhr25.9 °C15.0 °C51 %765.0 W/m²6.6 km/hOst-NO14.4 km/h1022.3 hPa0.0 mm0.0 mm/hwechselhaft
06.09.2026 - 14.40Uhr25.8 °C15.1 °C52 %694.0 W/m²7.8 km/hOst-NO17.6 km/h1022.3 hPa0.0 mm0.0 mm/hwechselhaft
06.09.2026 - 14.45Uhr25.8 °C14.9 °C51 %749.0 W/m²10.6 km/hOst-NO19.4 km/h1022.2 hPa0.0 mm0.0 mm/hwechselhaft
06.09.2026 - 14.50Uhr25.6 °C14.6 °C51 %738.0 W/m²11.7 km/hOst-NO19.4 km/h1022.1 hPa0.0 mm0.0 mm/hwechselhaft
06.09.2026 - 14.55Uhr25.8 °C14.9 °C51 %724.0 W/m²6.4 km/hOst-NO20.9 km/h1022.0 hPa0.0 mm0.0 mm/hwechselhaft
06.09.2026 - 15.00Uhr25.8 °C14.7 °C50 %707.0 W/m²10.1 km/hNordosten20.9 km/h1022.0 hPa0.0 mm0.0 mm/hwechselhaft
06.09.2026 - 15.05Uhr25.7 °C14.8 °C51 %728.0 W/m²12.0 km/hOst-NO20.9 km/h1022.0 hPa0.0 mm0.0 mm/hwechselhaft
06.09.2026 - 15.10Uhr25.9 °C14.6 °C50 %717.0 W/m²13.9 km/hNordosten20.9 km/h1021.9 hPa0.0 mm0.0 mm/hwechselhaft
06.09.2026 - 15.15Uhr25.8 °C14.6 °C50 %694.0 W/m²9.0 km/hOst-NO19.4 km/h1021.9 hPa0.0 mm0.0 mm/hwechselhaft
06.09.2026 - 15.20Uhr26.2 °C14.7 °C49 %679.0 W/m²13.2 km/hOst-NO22.7 km/h1021.9 hPa0.0 mm0.0 mm/hwechselhaft
06.09.2026 - 15.25Uhr26.0 °C14.4 °C49 %663.0 W/m²5.8 km/hNordosten13.0 km/h1021.7 hPa0.0 mm0.0 mm/hwechselhaft
06.09.2026 - 15.30Uhr26.2 °C14.7 °C49 %650.0 W/m²8.7 km/hOsten17.6 km/h1021.7 hPa0.0 mm0.0 mm/hwechselhaft
06.09.2026 - 15.35Uhr26.5 °C14.8 °C49 %638.0 W/m²10.1 km/hOst-NO19.4 km/h1021.7 hPa0.0 mm0.0 mm/hwechselhaft
06.09.2026 - 15.40Uhr26.6 °C14.8 °C49 %629.0 W/m²7.5 km/hOsten17.6 km/h1021.7 hPa0.0 mm0.0 mm/hwechselhaft
06.09.2026 - 15.45Uhr26.7 °C14.7 °C47 %619.0 W/m²9.2 km/hOst-NO16.2 km/h1021.6 hPa0.0 mm0.0 mm/hwechselhaft
06.09.2026 - 15.50Uhr26.6 °C14.8 °C48 %608.0 W/m²7.7 km/hOsten13.0 km/h1021.5 hPa0.0 mm0.0 mm/hwechselhaft
06.09.2026 - 15.55Uhr26.7 °C14.7 °C48 %598.0 W/m²8.3 km/hOst-NO19.4 km/h1021.5 hPa0.0 mm0.0 mm/hwechselhaft
06.09.2026 - 16.00Uhr27.0 °C15.0 °C48 %591.0 W/m²11.8 km/hOsten20.9 km/h1021.4 hPa0.0 mm0.0 mm/hwechselhaft
06.09.2026 - 16.05Uhr27.0 °C14.6 °C47 %582.0 W/m²9.2 km/hOsten20.9 km/h1021.4 hPa0.0 mm0.0 mm/hwechselhaft
06.09.2026 - 16.10Uhr26.9 °C14.8 °C47 %570.0 W/m²7.9 km/hOsten14.4 km/h1021.4 hPa0.0 mm0.0 mm/hwechselhaft
06.09.2026 - 16.15Uhr26.9 °C14.7 °C47 %561.0 W/m²7.9 km/hOsten14.4 km/h1021.4 hPa0.0 mm0.0 mm/hwechselhaft
06.09.2026 - 16.20Uhr26.7 °C14.7 °C48 %548.0 W/m²10.1 km/hOsten19.4 km/h1021.4 hPa0.0 mm0.0 mm/hwechselhaft
06.09.2026 - 16.25Uhr26.9 °C14.9 °C48 %536.0 W/m²9.5 km/hOsten16.2 km/h1021.3 hPa0.0 mm0.0 mm/hwechselhaft
06.09.2026 - 16.30Uhr27.1 °C14.9 °C47 %534.0 W/m²6.9 km/hOsten13.0 km/h1021.3 hPa0.0 mm0.0 mm/hwechselhaft
06.09.2026 - 16.35Uhr27.1 °C14.7 °C47 %519.0 W/m²4.7 km/hSüdosten11.2 km/h1021.2 hPa0.0 mm0.0 mm/hwechselhaft
06.09.2026 - 16.40Uhr26.8 °C14.6 °C47 %517.0 W/m²6.7 km/hSüdosten11.2 km/h1021.2 hPa0.0 mm0.0 mm/hwechselhaft
06.09.2026 - 16.45Uhr26.8 °C14.6 °C47 %487.0 W/m²5.5 km/hOst-SO9.7 km/h1021.2 hPa0.0 mm0.0 mm/hwechselhaft
06.09.2026 - 16.50Uhr26.8 °C14.5 °C47 %466.0 W/m²7.1 km/hSüdosten13.0 km/h1021.2 hPa0.0 mm0.0 mm/hwechselhaft
06.09.2026 - 16.55Uhr26.8 °C14.7 °C47 %450.0 W/m²8.4 km/hOst-SO14.4 km/h1021.2 hPa0.0 mm0.0 mm/hwechselhaft